Location: Cueva de Ratón
(10.1013°N, 67.6606°W)
Time: 03:09:42
(UTC+00:00)

Cosmos 1666 - Pass Details

Date: 02 December 2023
Orbit: 452 x 470 km, 82.5° (Epoch: 25 February)

Event Time Altitude Azimuth Distance (km) Brightness Sun altitude
Rises 22:48:34 0° 345° (NNW) 2,469 6.1 -10.3°
Reaches altitude 10° 22:50:42 10° 338° (NNW) 1,601 5.2 -10.8°
Maximum altitude 22:54:00 42° 267° (W) 676 3.9 -11.5°
Drops below altitude 10° 22:57:22 10° 195° (SSW) 1,621 5.7 -12.3°
Sets 22:59:32 0° 188° (S) 2,504 6.6 -12.8°
